Powrót do katalogu

THORAD DELTA 1 DEB

AktywnyLEO
NORAD 8169·DEBRIS·🇺🇸 United States

Wystrzelony Nov 15, 1974 z Vandenberg Space Force Base

Loading…

Następne Przeloty (najbliższe 24 godziny)

TLE

ŚwieżeSource: Space-Track

Epoka: Sep 14, 2026, 23:18 UTC

1 08169U 74089AK  26257.97143078  .00000505  00000-0  19441-2 0  9994
2 08169 102.5178 262.0741 0125066 328.3095  58.7906 12.94576444412392

Śledź THORAD DELTA 1 DEB w czasie rzeczywistym z AllMySat

Download on the App Store